Overview Statistics Trail Chart Weather Telemetry Raw packets
 

This is the latest recevied weather packets stored in our database for station/object W6JCZ-13. If no packets are shown the sender has not sent any weather packets the latest 10 day(s).

<< 38 39 40 41 42 43 44 >>
Time Temp. Humidity Pressure Rain* Wind** Luminosity Snow
1788046217 31.67° C 32% 1008.9 hPa 0 mm - - -
1788045617 31.67° C 30% 1009.1 hPa 0 mm - - -
1788045017 31.67° C 33% 1009.3 hPa 0 mm - - -
1788044417 31.67° C 30% 1009.4 hPa 0 mm - - -
1788043817 31.67° C 31% 1009.5 hPa 0 mm - - -
1788043217 31.67° C 35% 1009.6 hPa 0 mm - - -
1788042617 31.67° C 31% 1009.7 hPa 0 mm - - -
1788042017 31.11° C 30% 1009.9 hPa 0 mm - - -
1788041417 31.11° C 30% 1010.1 hPa 0 mm - - -
1788040817 31.11° C 35% 1010.1 hPa 0 mm - - -
1788040217 30.56° C 27% 1010.4 hPa 0 mm - - -
1788039617 30.56° C 32% 1010.5 hPa 0 mm - - -
1788039017 30.56° C 32% 1010.7 hPa 0 mm - - -
1788038417 30.56° C 28% 1010.8 hPa 0 mm - - -
1788037817 30.56° C 34% 1010.9 hPa 0 mm - - -
1788037221 30° C 35% 1011 hPa 0 mm - - -
1788036617 30° C 32% 1011.1 hPa 0 mm - - -
1788036016 30° C 34% 1011.2 hPa 0 mm - - -
1788035417 29.44° C 37% 1011.3 hPa 0 mm - - -
1788034816 29.44° C 34% 1011.5 hPa 0 mm - - -
1788034217 28.89° C 36% 1011.6 hPa 0 mm - - -
1788033617 28.89° C 33% 1011.7 hPa 0 mm - - -
1788033017 28.89° C 40% 1011.8 hPa 0 mm - - -
1788032417 28.33° C 38% 1012 hPa 0 mm - - -
1788031822 28.33° C 39% 1012.1 hPa 0 mm - - -

* Rain latest hour (hover to see other rain measurements)
** Current wind speed in m/s (hover to see current wind gust speed)